Weather in Boca Raton

United States     26°21′41″N   80°04′56″W
temp.,
°C
wind,
m/s
gust,
m/s
humid.,
%
clouds,
%
prec.,
mm/h
press.,
hPa
HPBL,
m
17 may, mon
mon1723:00+24ene8868100 0.1 10211021
02:00+24ene7770100 0.1 1019864
05:00+24ene666550 0.1 1019918
08:00+24ene565899 0.1 10201419
11:00+25ene6757100 0.0 10201490
14:00+25ene7755100 0.0 10201531
17:00+26e675496 0.0 10191627
20:00+25ene7757100 0.1 10191484
18 may, tue
tue1823:00+25ene6863100 0.1 10201139
02:00+25e886198 0.3 10191067
05:00+25e8968100 0.1 10181169
08:00+25e9964100 0.3 10191314
11:00+26ene9963100 0.2 10201334
14:00+26ene9858100 0.2 10191441
17:00+26ene895788 0.0 10181518
20:00+26e8106493 0.1 10181438
19 may, wed
wed1923:00+25e9106954 0.4 10191346
02:00+25ene101169100 0.9 10181312
05:00+25e9106098 0.1 10171457
08:00+25e8107290 0.2 10181120
11:00+26e910688 0.3 10201200
14:00+27e11116464 0.6 10191348
17:00+27e1112645 0.1 10181432
20:00+26e1012671 0.1 10191400
20 may, thu
thu2023:00+25e12137123 0.9 10201276
02:00+25e11137184 1.3 10191326
05:00+25e111270100 0.8 10181237
08:00+25e101161100 0.9 10201584
11:00+26ene101160100 0.0 10211645
14:00+26ene101160100 0.1 10201615
17:00+26ene101161100 0.1 10191629
20:00+26ene111267100 0.4 10191388
21 may, fri
fri2123:00+25ene12137195 0.6 10201309
02:00+25ene121472100 1.1 10201270
05:00+25ene121471100 0.4 10191309
08:00+25ene12137167 0.8 10211288
11:00+26ene12136754 0.3 10221341
14:00+26ene101161100 0.3 10211488
17:00+26ene11126194 0.0 10211607
20:00+25ene12126529 0.1 10211582